• In Belarus
  • List of Countries
  • For 7 days
  • Water Temperature
  • Weather Map
  • Weather Widgets
  • user-avatar
    Login

    Hourly Weather Golden Sands

    Today, 20 August, Tuesday

    Time Temperature Precipitation Wind Pressure Humidity
    00:00 +20°C° 0 mm 2 mps 763 mmHg 76%
    01:00 +19°C° 0 mm 2 mps 763 mmHg 76%
    02:00 +19°C° 0 mm 2 mps 763 mmHg 77%
    03:00 +19°C° 0 mm 3 mps 763 mmHg 77%
    04:00 +19°C° 0 mm 3 mps 763 mmHg 78%
    05:00 +19°C° 0 mm 4 mps 763 mmHg 78%
    06:00 +21°C° 0 mm 4 mps 763 mmHg 69%
    07:00 +23°C° 0 mm 4 mps 763 mmHg 59%
    08:00 +26°C° 0 mm 4 mps 764 mmHg 50%
    09:00 +27°C° 0 mm 5 mps 764 mmHg 46%
    10:00 +29°C° 0 mm 5 mps 764 mmHg 42%
    11:00 +30°C° 0 mm 6 mps 764 mmHg 39%
    12:00 +30°C° 0 mm 6 mps 764 mmHg 39%
    13:00 +32°C° 0 mm 6 mps 763 mmHg 39%
    14:00 +32°C° 0 mm 6 mps 763 mmHg 38%
    15:00 +32°C° 0 mm 6 mps 763 mmHg 39%
    16:00 +30°C° 0 mm 6 mps 763 mmHg 39%
    17:00 +30°C° 0 mm 5 mps 763 mmHg 40%
    18:00 +28°C° 0 mm 5 mps 763 mmHg 50%
    19:00 +26°C° 0 mm 5 mps 763 mmHg 61%
    20:00 +23°C° 0 mm 4 mps 763 mmHg 71%
    21:00 +22°C° 0 mm 4 mps 763 mmHg 73%
    22:00 +22°C° 0 mm 4 mps 762 mmHg 75%
    23:00 +21°C° 0 mm 3 mps 762 mmHg 76%

    Tomorrow, 21 August, Wednesday

    Time Temperature Precipitation Wind Pressure Humidity
    00:00 +21°C° 0 mm 4 mps 762 mmHg 75%
    01:00 +21°C° 0 mm 4 mps 762 mmHg 73%
    02:00 +21°C° 0 mm 5 mps 762 mmHg 71%
    03:00 +21°C° 0 mm 6 mps 761 mmHg 68%
    04:00 +21°C° 0 mm 6 mps 761 mmHg 66%
    05:00 +21°C° 0 mm 7 mps 761 mmHg 63%
    06:00 +23°C° 0 mm 7 mps 761 mmHg 58%
    07:00 +26°C° 0 mm 7 mps 761 mmHg 52%
    08:00 +28°C° 0 mm 7 mps 761 mmHg 46%
    09:00 +30°C° 0 mm 7 mps 761 mmHg 44%
    10:00 +32°C° 0 mm 7 mps 761 mmHg 41%
    11:00 +34°C° 0 mm 7 mps 761 mmHg 39%
    12:00 +34°C° 0 mm 7 mps 761 mmHg 41%
    13:00 +34°C° 0 mm 8 mps 761 mmHg 43%
    14:00 +34°C° 0 mm 8 mps 761 mmHg 45%
    15:00 +34°C° 0 mm 8 mps 760 mmHg 47%
    16:00 +33°C° 0 mm 7 mps 760 mmHg 49%
    17:00 +32°C° 0 mm 6 mps 760 mmHg 52%
    18:00 +29°C° 0 mm 5 mps 760 mmHg 60%
    19:00 +27°C° 0 mm 4 mps 760 mmHg 67%
    20:00 +26°C° 0 mm 3 mps 760 mmHg 75%
    21:00 +25°C° 0 mm 3 mps 760 mmHg 74%
    22:00 +25°C° 0 mm 3 mps 760 mmHg 72%
    23:00 +24°C° 0 mm 3 mps 760 mmHg 70%

    Day after tomorrow, 22 August, Thursday

    Time Temperature Precipitation Wind Pressure Humidity
    00:00 +23°C° 0 mm 4 mps 760 mmHg 67%
    01:00 +23°C° 0 mm 4 mps 760 mmHg 65%
    02:00 +23°C° 0 mm 5 mps 760 mmHg 62%
    03:00 +23°C° 0 mm 6 mps 760 mmHg 62%
    04:00 +23°C° 0 mm 6 mps 760 mmHg 62%
    05:00 +23°C° 0 mm 7 mps 760 mmHg 63%
    06:00 +26°C° 0 mm 7 mps 760 mmHg 56%
    07:00 +28°C° 0 mm 8 mps 761 mmHg 50%
    08:00 +31°C° 0 mm 8 mps 761 mmHg 44%
    09:00 +32°C° 0 mm 8 mps 761 mmHg 39%
    10:00 +33°C° 0 mm 9 mps 761 mmHg 35%
    11:00 +36°C° 0 mm 10 mps 762 mmHg 30%
    12:00 +35°C° 0 mm 9 mps 762 mmHg 30%
    13:00 +35°C° 0 mm 9 mps 761 mmHg 30%
    14:00 +37°C° 0 mm 8 mps 761 mmHg 30%
    15:00 +35°C° 0 mm 8 mps 761 mmHg 32%
    16:00 +34°C° 0 mm 7 mps 761 mmHg 34%
    17:00 +33°C° 0 mm 7 mps 761 mmHg 37%
    18:00 +30°C° 0 mm 6 mps 761 mmHg 44%
    19:00 +28°C° 0 mm 5 mps 761 mmHg 52%
    20:00 +26°C° 0 mm 4 mps 762 mmHg 59%
    21:00 +26°C° 0 mm 5 mps 762 mmHg 58%
    22:00 +26°C° 0 mm 5 mps 762 mmHg 56%
    23:00 +26°C° 0 mm 6 mps 762 mmHg 54%

    23 August, Friday

    Time Temperature Precipitation Wind Pressure Humidity
    00:00 +26°C° 0 mm 7 mps 762 mmHg 57%
    01:00 +24°C° 0 mm 8 mps 762 mmHg 60%
    02:00 +24°C° 0 mm 9 mps 761 mmHg 63%
    03:00 +24°C° 0 mm 9 mps 762 mmHg 66%
    04:00 +23°C° 0 mm 10 mps 762 mmHg 68%
    05:00 +23°C° 0 mm 10 mps 762 mmHg 71%
    06:00 +24°C° 0 mm 10 mps 762 mmHg 68%
    07:00 +26°C° 0 mm 10 mps 762 mmHg 64%
    08:00 +27°C° 0 mm 10 mps 762 mmHg 61%
    09:00 +29°C° 0 mm 9 mps 762 mmHg 54%
    10:00 +32°C° 0 mm 9 mps 763 mmHg 47%
    11:00 +34°C° 0 mm 9 mps 763 mmHg 40%
    12:00 +34°C° 0 mm 9 mps 762 mmHg 40%
    13:00 +35°C° 0 mm 9 mps 762 mmHg 40%
    14:00 +35°C° 0 mm 9 mps 762 mmHg 39%
    15:00 +34°C° 0 mm 9 mps 762 mmHg 43%
    16:00 +33°C° 0 mm 8 mps 762 mmHg 46%
    17:00 +32°C° 0 mm 8 mps 762 mmHg 50%
    18:00 +30°C° 0 mm 7 mps 762 mmHg 56%
    19:00 +28°C° 0 mm 6 mps 762 mmHg 63%
    20:00 +26°C° 0 mm 5 mps 762 mmHg 70%
    21:00 +26°C° 0 mm 5 mps 762 mmHg 68%
    22:00 +26°C° 0 mm 5 mps 762 mmHg 67%
    23:00 +26°C° 0 mm 6 mps 762 mmHg 66%

    24 August, Saturday

    Time Temperature Precipitation Wind Pressure Humidity
    00:00 +26°C° 0 mm 6 mps 762 mmHg 65%
    01:00 +24°C° 0 mm 6 mps 762 mmHg 65%
    02:00 +24°C° 0 mm 7 mps 762 mmHg 64%
    03:00 +24°C° 0 mm 7 mps 762 mmHg 65%
    04:00 +24°C° 0 mm 8 mps 762 mmHg 66%
    05:00 +23°C° 0 mm 8 mps 763 mmHg 67%
    06:00 +24°C° 0 mm 8 mps 763 mmHg 65%
    07:00 +26°C° 0 mm 9 mps 763 mmHg 64%
    08:00 +27°C° 0 mm 9 mps 763 mmHg 62%
    09:00 +28°C° 0 mm 9 mps 764 mmHg 58%
    10:00 +31°C° 0 mm 9 mps 764 mmHg 53%
    11:00 +32°C° 0 mm 9 mps 764 mmHg 49%
    12:00 +32°C° 0 mm 9 mps 764 mmHg 46%
    13:00 +32°C° 0 mm 9 mps 763 mmHg 42%
    14:00 +33°C° 0 mm 9 mps 763 mmHg 39%
    15:00 +32°C° 0 mm 8 mps 763 mmHg 43%
    16:00 +31°C° 0 mm 8 mps 763 mmHg 47%
    17:00 +29°C° 0 mm 8 mps 762 mmHg 51%
    18:00 +27°C° 0 mm 7 mps 762 mmHg 60%
    19:00 +26°C° 0 mm 6 mps 762 mmHg 69%
    20:00 +23°C° 0 mm 6 mps 762 mmHg 78%
    21:00 +22°C° 0 mm 5 mps 762 mmHg 78%
    22:00 +22°C° 0 mm 4 mps 763 mmHg 78%
    23:00 +22°C° 0 mm 4 mps 763 mmHg 77%

    25 August, Sunday

    Time Temperature Precipitation Wind Pressure Humidity
    00:00 +22°C° 0 mm 4 mps 762 mmHg 77%
    01:00 +22°C° 0 mm 5 mps 762 mmHg 76%
    02:00 +22°C° 0 mm 5 mps 762 mmHg 75%
    03:00 +22°C° 0 mm 6 mps 762 mmHg 74%
    04:00 +22°C° 0 mm 7 mps 762 mmHg 73%
    05:00 +22°C° 0 mm 8 mps 761 mmHg 73%
    06:00 +23°C° 0 mm 8 mps 762 mmHg 68%
    07:00 +26°C° 0 mm 8 mps 762 mmHg 63%
    08:00 +27°C° 0 mm 8 mps 762 mmHg 59%
    09:00 +29°C° 0 mm 8 mps 762 mmHg 55%
    10:00 +31°C° 0 mm 8 mps 762 mmHg 52%
    11:00 +33°C° 0 mm 8 mps 761 mmHg 48%
    12:00 +33°C° 0 mm 8 mps 761 mmHg 49%
    13:00 +33°C° 0 mm 8 mps 761 mmHg 51%
    14:00 +33°C° 0 mm 8 mps 761 mmHg 52%
    15:00 +32°C° 0 mm 8 mps 760 mmHg 55%
    16:00 +31°C° 0 mm 8 mps 760 mmHg 59%
    17:00 +29°C° 0 mm 7 mps 760 mmHg 62%
    18:00 +28°C° 0 mm 7 mps 760 mmHg 72%
    19:00 +26°C° 0 mm 6 mps 760 mmHg 82%
    20:00 +23°C° 0 mm 6 mps 760 mmHg 92%
    21:00 +23°C° 0 mm 5 mps 760 mmHg 92%
    22:00 +22°C° 0 mm 5 mps 761 mmHg 92%
    23:00 +22°C° 0 mm 4 mps 761 mmHg 93%
    Show more